Location: Unspecified
(41.5000°N, 0.0000°E)
Time: 18:39:47
(UTC+00:00)

A-11 Canister half - Pass Details

Date: 01 July 2019
Orbit: 1526 x 1683 km, 47.3° (Epoch: 19 July)

Event Time Altitude Azimuth Distance (km) Brightness Sun altitude
Exits shadow 23:20:19 17° 116° (ESE) 3,247 10.4 -24.6°
Drops below altitude 10° 23:24:50 10° 88° (E) 3,774 11.0 -24.8°
Sets 23:29:11 0° 70° (ENE) 4,735 11.7 -24.9°
